Home   Weather   Truckee   Past weeks
Flag for USA

Past Weather in Truckee, California, USA — Yesterday and Last 2 Weeks

Now
32 °F

Passing clouds.


Feels Like: 27 °F
Forecast: 32 / 16 °F
Wind: 5 mph from Southwest

Location: Tahoe Airport

Current Time: Jan 27, 2020 at 10:48:19 pm

Latest Report: Jan 27, 2020 at 9:55 pm


Visibility: 10 mi

Pressure: 30.34 "Hg (24.30 "Hg at 1773m altitude)

Humidity: 87%

Dew Point: 28 °F

Location of TruckeeLocation

Past Weather in Truckee — Graph

°F

Truckee Temperature Yesterday

Maximum temperature yesterday: 43 °F (at 11:45 am)
Minimum temperature yesterday: 28 °F (at 10:15 pm)
Average temperature yesterday: 36 °F

High & Low Weather Summary for the Past Weeks

 TemperatureHumidityPressure
High55 °F (Jan 25, 1:45 pm)100% (Jan 16, 5:45 pm)30.38 "Hg (Jan 16, 5:45 pm)
Low0 °F (Jan 15, 6:45 am)23% (Jan 16, 7:45 am)29.60 "Hg (Jan 16, 11:45 am)
Average31 °F80%30.12 "Hg
* Reported Jan 12 9:15 pm — Jan 27 9:35 pm, Truckee. Weather by CustomWeather, © 2020

Note: Actual official high and low records may vary slightly from our data, if they occured in-between our weather recording intervals... More about our weather records

Truckee Weather History for the Previous 24 Hours

Scroll right to see more
 ConditionsComfort  
Time TempWeatherWind HumidityBarometerVisibility
9:35 pm
Mon, Jan 27
32 °FMostly cloudy.No wind93%30.34 "Hg10 mi
9:15 pm34 °FMostly cloudy.No wind87%30.34 "Hg10 mi
8:55 pm32 °FOvercast.No wind87%30.34 "Hg10 mi
8:35 pm34 °FOvercast.No wind87%30.34 "Hg10 mi
8:15 pm34 °FOvercast.3 mph81%30.35 "Hg10 mi
7:55 pm36 °FOvercast.3 mph81%30.35 "Hg10 mi
7:35 pm36 °FOvercast.6 mph81%30.35 "Hg10 mi
7:15 pm36 °FOvercast.3 mph81%30.34 "Hg10 mi
6:55 pm36 °FOvercast.3 mph81%30.35 "Hg10 mi
6:35 pm36 °FOvercast.No wind75%30.34 "Hg10 mi
5:55 pm37 °FOvercast.3 mph70%30.33 "Hg10 mi
5:35 pm37 °FOvercast.7 mph70%30.34 "Hg10 mi
5:15 pm39 °FOvercast.8 mph65%30.34 "Hg10 mi
4:45 pm43 °FScattered clouds.7 mph49%30.33 "Hg10 mi
3:45 pm43 °FScattered clouds.7 mph49%30.32 "Hg10 mi
1:55 pm43 °FBroken clouds.9 mph49%30.34 "Hg10 mi
12:50 pm41 °FMore clouds than sun.3 mph81%30.35 "Hg10 mi
11:50 am41 °FOvercast.5 mph70%30.37 "Hg10 mi
10:50 am39 °FMostly cloudy.6 mph70%30.37 "Hg10 mi
9:50 am39 °FScattered clouds.No wind70%30.35 "Hg10 mi
8:50 am34 °FMostly cloudy.No wind87%30.35 "Hg10 mi
7:55 am30 °FMostly cloudy.No wind93%30.33 "Hg10 mi
6:50 am30 °FOvercast.No wind93%30.31 "Hg10 mi
5:35 am32 °FPassing clouds.3 mph87%30.31 "Hg10 mi
5:15 am32 °FOvercast.6 mph87%30.30 "Hg10 mi
4:55 am32 °FOvercast.5 mph93%30.29 "Hg10 mi
4:35 am32 °FOvercast.5 mph93%30.30 "Hg10 mi
4:15 am32 °FOvercast.3 mph93%30.29 "Hg10 mi
3:55 am32 °FMostly cloudy.3 mph93%30.29 "Hg10 mi
3:35 am32 °FOvercast.No wind93%30.29 "Hg10 mi
3:15 am32 °FOvercast.5 mph93%30.31 "Hg10 mi
2:55 am32 °FMostly cloudy.No wind93%30.32 "Hg10 mi
2:35 am32 °FOvercast.No wind93%30.31 "Hg10 mi
2:15 am32 °FMostly cloudy.3 mph93%30.31 "Hg10 mi
1:55 am32 °FMostly cloudy.No wind87%30.29 "Hg10 mi
1:35 am30 °FMostly cloudy.No wind93%30.29 "Hg10 mi
12:55 am30 °FMostly cloudy.3 mph93%30.29 "Hg10 mi
12:35 am30 °FOvercast.No wind93%30.30 "Hg10 mi
12:15 am30 °FOvercast.No wind93%30.29 "Hg10 mi
11:55 pm
Sun, Jan 26
30 °FOvercast.6 mph93%30.30 "Hg10 mi
11:35 pm28 °FOvercast.5 mph100%30.30 "Hg10 mi
11:15 pm28 °FPassing clouds.No wind93%30.29 "Hg10 mi
10:55 pm28 °FClear.No wind93%30.29 "Hg10 mi
10:35 pm30 °FClear.3 mph93%30.29 "Hg10 mi
10:15 pm28 °FPassing clouds.3 mph100%30.28 "Hg10 mi
Weather by CustomWeather, © 2020

See weather overview

Advertising